Terminal Aerodrome Forecast
Issued by NWS

Home | Current Version | Previous Version | Text Only | Print | Product List | Glossary On
Versions: 1 2 3 4 5 6 7 8 9 10 11 12 13 14 15 16 17 18 19 20 21 22 23
000
FTUS41 KGYX 242335
TAFHIE
TAF
KHIE 242335Z 2500/2524 02005KT P6SM BKN250
     FM250900 12007KT P6SM FEW050 BKN100
     FM251500 12008G16KT P6SM BKN070 OVC100
     FM252100 13013G20KT P6SM -SHRA BKN070 OVC100=

USA.gov is the U.S. government's official web portal to all federal, state and local government web resources and services.